| time (UTC) | temp F | wind direction | speed knots | gust knots | rain 1hr in | rain 24hr in | rain mn in | humidity % | barometer mb |
| 20260906225327 | 71 | 183 | 2.6 | 6.1 | 0.00 | 0.04 | 0.04 | 46 | 1027.4 |
| 20260906224822 | 71 | 291 | 2.6 | 8.7 | 0.00 | 0.04 | 0.04 | 46 | 1027.4 |
| 20260906224330 | 71 | 317 | 4.3 | 8.7 | 0.00 | 0.04 | 0.04 | 47 | 1027.4 |
| 20260906223851 | 71 | 262 | 1.7 | 4.3 | 0.00 | 0.04 | 0.04 | 55 | 1027.6 |
| 20260906223331 | 71 | 293 | 0.0 | 0.0 | 0.00 | 0.04 | 0.04 | 55 | 1027.4 |
| 20260906222820 | 71 | 43 | 0.0 | 0.0 | 0.00 | 0.04 | 0.04 | 55 | 1027.3 |
| 20260906222322 | 71 | 19 | 0.0 | 3.5 | 0.00 | 0.04 | 0.04 | 55 | 1027.3 |
| 20260906221825 | 72 | 335 | 1.7 | 3.5 | 0.00 | 0.04 | 0.04 | 54 | 1027.3 |
| 20260906221313 | 72 | 25 | 1.7 | 2.6 | 0.00 | 0.04 | 0.04 | 52 | 1027.2 |
| 20260906220834 | 72 | 41 | 1.7 | 4.3 | 0.00 | 0.04 | 0.04 | 51 | 1027.0 |
| 20260906220316 | 73 | 70 | 2.6 | 5.2 | 0.00 | 0.04 | 0.04 | 52 | 1027.1 |
| 20260906215824 | 73 | 59 | 3.5 | 6.1 | 0.00 | 0.04 | 0.04 | 53 | 1027.2 |
| 20260906215324 | 73 | 34 | 2.6 | 4.3 | 0.00 | 0.04 | 0.04 | 54 | 1027.3 |
| 20260906214827 | 73 | 73 | 1.7 | 6.1 | 0.00 | 0.04 | 0.04 | 55 | 1027.4 |
| 20260906214317 | 73 | 345 | 1.7 | 4.3 | 0.01 | 0.04 | 0.04 | 55 | 1027.3 |
| 20260906213819 | 72 | 318 | 0.9 | 3.5 | 0.01 | 0.04 | 0.04 | 57 | 1027.4 |
| 20260906213319 | 72 | 44 | 1.7 | 3.5 | 0.04 | 0.04 | 0.04 | 58 | 1027.5 |
| 20260906212827 | 72 | 89 | 0.0 | 2.6 | 0.04 | 0.04 | 0.04 | 57 | 1027.5 |
| 20260906212328 | 72 | 131 | 0.9 | 4.3 | 0.04 | 0.04 | 0.04 | 60 | 1027.5 |
| 20260906211830 | 71 | 354 | 1.7 | 6.1 | 0.04 | 0.04 | 0.04 | 61 | 1027.5 |
| 20260906211322 | 71 | 20 | 1.7 | 6.1 | 0.04 | 0.04 | 0.04 | 61 | 1027.6 |
| 20260906210822 | 71 | 333 | 0.9 | 4.3 | 0.04 | 0.04 | 0.04 | 65 | 1027.8 |
| 20260906210323 | 71 | 70 | 0.9 | 4.3 | 0.04 | 0.04 | 0.04 | 65 | 1027.8 |
| 20260906205814 | 70 | 144 | 1.7 | 5.2 | 0.04 | 0.04 | 0.04 | 59 | 1027.8 |
| 20260906205315 | 68 | 146 | 0.9 | 3.5 | 0.04 | 0.04 | 0.04 | 72 | 1027.8 |
| 20260906204819 | 67 | 53 | 0.0 | 1.7 | 0.04 | 0.04 | 0.04 | 79 | 1027.9 |
| 20260906204327 | 67 | 44 | 0.0 | 4.3 | 0.03 | 0.03 | 0.03 | 74 | 1028.1 |
| 20260906203830 | 69 | 26 | 2.6 | 4.3 | 0.03 | 0.03 | 0.03 | 66 | 1028.2 |
| 20260906203330 | 70 | 28 | 1.7 | 5.2 | 0.00 | 0.00 | 0.00 | 58 | 1028.2 |
| 20260906202820 | 71 | 79 | 2.6 | 7.8 | 0.00 | 0.00 | 0.00 | 52 | 1028.1 |
| 20260906202323 | 72 | 86 | 2.6 | 8.7 | 0.00 | 0.00 | 0.00 | 47 | 1028.1 |
| 20260906201825 | 73 | 66 | 2.6 | 4.3 | 0.00 | 0.00 | 0.00 | 46 | 1028.1 |
| 20260906201314 | 73 | 39 | 0.9 | 4.3 | 0.00 | 0.00 | 0.00 | 46 | 1028.2 |
| 20260906200816 | 74 | 60 | 1.7 | 11.3 | 0.00 | 0.00 | 0.00 | 44 | 1028.2 |
| 20260906200318 | 76 | 41 | 5.2 | 11.3 | 0.00 | 0.00 | 0.00 | 42 | 1027.8 |
| 20260906195826 | 76 | 90 | 0.9 | 6.1 | 0.00 | 0.00 | 0.00 | 41 | 1028.0 |
| 20260906195328 | 77 | 101 | 2.6 | 7.0 | 0.00 | 0.00 | 0.00 | 39 | 1028.1 |
| 20260906194850 | 79 | 323 | 2.6 | 7.0 | 0.00 | 0.00 | 0.00 | 39 | 1028.0 |
| 20260906194339 | 78 | 132 | 2.6 | 9.6 | 0.00 | 0.00 | 0.00 | 41 | 1028.0 |
| 20260906193818 | 78 | 124 | 2.6 | 7.0 | 0.00 | 0.00 | 0.00 | 41 | 1028.0 |
| 20260906193319 | 79 | 131 | 4.3 | 7.0 | 0.00 | 0.00 | 0.00 | 40 | 1028.0 |
| 20260906192829 | 79 | 146 | 2.6 | 7.0 | 0.00 | 0.00 | 0.00 | 36 | 1028.0 |
| 20260906192351 | 79 | 94 | 4.3 | 7.0 | 0.00 | 0.00 | 0.00 | 35 | 1028.2 |
| 20260906191827 | 78 | 120 | 1.7 | 10.4 | 0.00 | 0.00 | 0.00 | 36 | 1028.2 |
| 20260906191317 | 78 | 149 | 5.2 | 11.3 | 0.00 | 0.00 | 0.00 | 36 | 1028.2 |
| 20260906190819 | 78 | 127 | 5.2 | 11.3 | 0.00 | 0.00 | 0.00 | 35 | 1028.3 |
| 20260906190322 | 79 | 162 | 5.2 | 9.6 | 0.00 | 0.00 | 0.00 | 36 | 1028.3 |
| 20260906185813 | 78 | 110 | 5.2 | 9.6 | 0.00 | 0.00 | 0.00 | 35 | 1028.3 |
| 20260906185314 | 78 | 77 | 4.3 | 9.6 | 0.00 | 0.00 | 0.00 | 36 | 1028.5 |
| 20260906184815 | 78 | 137 | 2.6 | 12.2 | 0.00 | 0.00 | 0.00 | 36 | 1028.4 |
| 20260906184321 | 78 | 152 | 7.0 | 12.2 | 0.00 | 0.00 | 0.00 | 35 | 1028.5 |
| 20260906183820 | 78 | 150 | 5.2 | 10.4 | 0.00 | 0.00 | 0.00 | 35 | 1028.6 |
| 20260906183343 | 77 | 169 | 5.2 | 10.4 | 0.00 | 0.00 | 0.00 | 37 | 1028.7 |
| 20260906182830 | 78 | 131 | 4.3 | 8.7 | 0.00 | 0.00 | 0.00 | 36 | 1028.8 |
| 20260906182312 | 78 | 130 | 3.5 | 10.4 | 0.00 | 0.00 | 0.00 | 35 | 1028.9 |
| 20260906181814 | 77 | 150 | 6.1 | 13.9 | 0.00 | 0.00 | 0.00 | 37 | 1028.9 |
| 20260906181321 | 77 | 143 | 7.0 | 13.9 | 0.00 | 0.00 | 0.00 | 37 | 1029.0 |
| 20260906180842 | 77 | 132 | 7.0 | 10.4 | 0.00 | 0.00 | 0.00 | 35 | 1029.1 |
| 20260906180321 | 77 | 144 | 6.1 | 10.4 | 0.00 | 0.00 | 0.00 | 34 | 1029.1 |
| 20260906175830 | 77 | 120 | 4.3 | 9.6 | 0.00 | 0.00 | 0.00 | 36 | 1029.1 |
| 20260906175331 | 77 | 146 | 4.3 | 9.6 | 0.00 | 0.00 | 0.00 | 37 | 1029.3 |
| 20260906174854 | 77 | 217 | 4.3 | 12.2 | 0.00 | 0.00 | 0.00 | 37 | 1029.2 |
| 20260906174321 | 76 | 153 | 6.1 | 11.3 | 0.00 | 0.00 | 0.00 | 38 | 1029.4 |
| 20260906173823 | 77 | 132 | 7.0 | 9.6 | 0.00 | 0.00 | 0.00 | 40 | 1029.4 |
| 20260906173317 | 77 | 141 | 5.2 | 8.7 | 0.00 | 0.00 | 0.00 | 38 | 1029.4 |
| 20260906172827 | 77 | 121 | 6.1 | 8.7 | 0.00 | 0.00 | 0.00 | 40 | 1029.5 |
| 20260906172327 | 77 | 161 | 6.1 | 10.4 | 0.00 | 0.00 | 0.00 | 39 | 1029.6 |
| 20260906171829 | 77 | 138 | 6.1 | 10.4 | 0.00 | 0.00 | 0.00 | 39 | 1029.7 |
| 20260906171339 | 77 | 124 | 6.1 | 10.4 | 0.00 | 0.00 | 0.00 | 40 | 1029.6 |
| 20260906170820 | 77 | 191 | 5.2 | 9.6 | 0.00 | 0.00 | 0.00 | 39 | 1029.6 |
| 20260906170321 | 77 | 113 | 6.1 | 9.6 | 0.00 | 0.00 | 0.00 | 35 | 1029.7 |
| 20260906165827 | 78 | 124 | 5.2 | 8.7 | 0.00 | 0.00 | 0.00 | 37 | 1029.7 |
| 20260906165329 | 77 | 168 | 3.5 | 8.7 | 0.00 | 0.00 | 0.00 | 37 | 1029.6 |
| 20260906164852 | 78 | 141 | 3.5 | 9.6 | 0.00 | 0.00 | 0.00 | 35 | 1029.6 |
| 20260906164320 | 78 | 119 | 4.3 | 9.6 | 0.00 | 0.00 | 0.00 | 36 | 1029.7 |
| 20260906163819 | 78 | 155 | 3.5 | 8.7 | 0.00 | 0.00 | 0.00 | 35 | 1029.7 |
| 20260906163321 | 77 | 188 | 4.3 | 8.7 | 0.00 | 0.00 | 0.00 | 38 | 1029.7 |
| 20260906162830 | 77 | 212 | 3.5 | 8.7 | 0.00 | 0.00 | 0.00 | 37 | 1029.7 |
| 20260906162312 | 77 | 130 | 4.3 | 7.8 | 0.00 | 0.00 | 0.00 | 35 | 1029.7 |
| 20260906161834 | 77 | 150 | 3.5 | 6.1 | 0.00 | 0.00 | 0.00 | 33 | 1029.6 |
| 20260906161323 | 76 | 152 | 2.6 | 7.0 | 0.00 | 0.00 | 0.00 | 35 | 1029.6 |
| 20260906160825 | 76 | 123 | 3.5 | 7.8 | 0.00 | 0.00 | 0.00 | 35 | 1029.6 |
| 20260906160327 | 76 | 193 | 5.2 | 7.8 | 0.00 | 0.00 | 0.00 | 35 | 1029.7 |
| 20260906155817 | 76 | 127 | 2.6 | 6.1 | 0.00 | 0.00 | 0.00 | 34 | 1029.7 |
| 20260906155335 | 77 | 155 | 3.5 | 6.1 | 0.00 | 0.00 | 0.00 | 32 | 1029.6 |
| 20260906154814 | 77 | 136 | 1.7 | 6.1 | 0.00 | 0.00 | 0.00 | 32 | 1029.6 |
| 20260906154322 | 77 | 138 | 2.6 | 4.3 | 0.00 | 0.00 | 0.00 | 32 | 1029.6 |
| 20260906153824 | 77 | 260 | 0.9 | 3.5 | 0.00 | 0.00 | 0.00 | 32 | 1029.5 |
| 20260906153325 | 77 | 134 | 0.9 | 6.1 | 0.00 | 0.00 | 0.00 | 32 | 1029.6 |
| 20260906152815 | 77 | 175 | 1.7 | 6.1 | 0.00 | 0.00 | 0.00 | 33 | 1029.6 |
| 20260906152317 | 77 | 186 | 2.6 | 6.1 | 0.00 | 0.00 | 0.00 | 33 | 1029.6 |
| 20260906151838 | 76 | 239 | 0.9 | 1.7 | 0.00 | 0.00 | 0.00 | 33 | 1029.6 |
| 20260906151325 | 76 | 252 | 0.9 | 2.6 | 0.00 | 0.00 | 0.00 | 33 | 1029.6 |
| 20260906150826 | 75 | 146 | 0.0 | 3.5 | 0.00 | 0.00 | 0.00 | 33 | 1029.7 |
| 20260906150327 | 75 | 150 | 2.6 | 3.5 | 0.00 | 0.00 | 0.00 | 33 | 1029.9 |
| 20260906145816 | 75 | 155 | 0.9 | 3.5 | 0.00 | 0.00 | 0.00 | 34 | 1029.8 |
| 20260906145318 | 74 | 160 | 0.0 | 0.9 | 0.00 | 0.00 | 0.00 | 36 | 1029.9 |
| 20260906144818 | 72 | 198 | 0.0 | 0.0 | 0.00 | 0.00 | 0.00 | 36 | 1029.8 |
| 20260906144327 | 71 | 200 | 0.0 | 0.0 | 0.00 | 0.00 | 0.00 | 39 | 1029.8 |
| 20260906143829 | 69 | 115 | 0.0 | 0.0 | 0.00 | 0.00 | 0.00 | 41 | 1029.8 |
| 20260906143329 | 67 | 115 | 0.0 | 0.0 | 0.00 | 0.00 | 0.00 | 44 | 1029.8 |
| 20260906142818 | 66 | 115 | 0.0 | 0.0 | 0.00 | 0.00 | 0.00 | 45 | 1029.8 |
| 20260906142318 | 66 | 116 | 0.0 | 0.0 | 0.00 | 0.00 | 0.00 | 44 | 1029.8 |
| 20260906141819 | 67 | 115 | 0.0 | 0.0 | 0.00 | 0.00 | 0.00 | 44 | 1029.8 |
| 20260906141329 | 67 | 64 | 0.0 | 0.0 | 0.00 | 0.00 | 0.00 | 42 | 1029.8 |
| 20260906140829 | 66 | 63 | 0.0 | 0.0 | 0.00 | 0.00 | 0.00 | 44 | 1029.8 |
| 20260906140331 | 64 | 62 | 0.0 | 0.0 | 0.00 | 0.00 | 0.00 | 49 | 1029.7 |
| 20260906135822 | 61 | 11 | 0.0 | 0.0 | 0.00 | 0.00 | 0.00 | 50 | 1029.6 |
| 20260906135342 | 60 | 12 | 0.0 | 0.0 | 0.00 | 0.00 | 0.00 | 55 | 1029.8 |
| 20260906134822 | 58 | 12 | 0.0 | 0.0 | 0.00 | 0.00 | 0.00 | 56 | 1029.8 |
| 20260906134331 | 58 | 12 | 0.0 | 0.0 | 0.00 | 0.00 | 0.00 | 57 | 1029.8 |
| 20260906133833 | 57 | 12 | 0.0 | 0.0 | 0.00 | 0.00 | 0.00 | 58 | 1029.8 |
| 20260906133354 | 56 | 12 | 0.0 | 0.0 | 0.00 | 0.00 | 0.00 | 59 | 1029.7 |
| 20260906132823 | 55 | 12 | 0.0 | 0.0 | 0.00 | 0.00 | 0.00 | 61 | 1029.7 |
| 20260906132345 | 55 | 12 | 0.0 | 0.0 | 0.00 | 0.00 | 0.00 | 60 | 1029.8 |
| 20260906131817 | 55 | 12 | 0.0 | 0.0 | 0.00 | 0.00 | 0.00 | 60 | 1029.6 |
| 20260906131343 | 54 | 12 | 0.0 | 0.0 | 0.00 | 0.00 | 0.00 | 61 | 1029.6 |
| 20260906130822 | 54 | 5 | 0.0 | 0.0 | 0.00 | 0.00 | 0.00 | 60 | 1029.6 |
| 20260906130324 | 54 | 5 | 0.0 | 0.0 | 0.00 | 0.00 | 0.00 | 61 | 1029.4 |
| 20260906125814 | 54 | 5 | 0.0 | 0.0 | 0.00 | 0.00 | 0.00 | 61 | 1029.4 |
| 20260906125335 | 54 | 6 | 0.0 | 0.0 | 0.00 | 0.00 | 0.00 | 60 | 1029.4 |
| 20260906124816 | 54 | 5 | 0.0 | 0.0 | 0.00 | 0.00 | 0.00 | 60 | 1029.4 |
| 20260906124346 | 55 | 6 | 0.0 | 0.0 | 0.00 | 0.00 | 0.00 | 59 | 1029.4 |
| 20260906123846 | 55 | 6 | 0.0 | 0.0 | 0.00 | 0.00 | 0.00 | 59 | 1029.3 |
| 20260906123326 | 54 | 6 | 0.0 | 0.0 | 0.00 | 0.00 | 0.00 | 60 | 1029.1 |
| 20260906122837 | 54 | 311 | 0.0 | 0.9 | 0.00 | 0.00 | 0.00 | 60 | 1029.1 |
| 20260906122318 | 55 | 311 | 0.0 | 1.7 | 0.00 | 0.00 | 0.00 | 59 | 1029.2 |
| 20260906121819 | 56 | 280 | 0.9 | 1.7 | 0.00 | 0.00 | 0.00 | 58 | 1029.1 |
| 20260906121326 | 56 | 37 | 0.9 | 0.9 | 0.00 | 0.00 | 0.00 | 58 | 1029.1 |
| 20260906120828 | 55 | 37 | 0.0 | 0.0 | 0.00 | 0.00 | 0.00 | 59 | 1029.2 |
| 20260906120351 | 55 | 37 | 0.0 | 0.0 | 0.00 | 0.00 | 0.00 | 59 | 1029.2 |
| 20260906115819 | 56 | 37 | 0.0 | 0.0 | 0.00 | 0.00 | 0.00 | 59 | 1029.2 |
| 20260906115319 | 56 | 37 | 0.0 | 0.0 | 0.00 | 0.00 | 0.00 | 59 | 1029.1 |
| 20260906114820 | 55 | 37 | 0.0 | 0.0 | 0.00 | 0.00 | 0.00 | 60 | 1029.1 |
| 20260906114325 | 55 | 32 | 0.0 | 0.9 | 0.00 | 0.00 | 0.00 | 61 | 1029.3 |
| 20260906113828 | 55 | 33 | 0.0 | 0.9 | 0.00 | 0.00 | 0.00 | 62 | 1029.3 |
| 20260906113329 | 55 | 32 | 0.0 | 1.7 | 0.00 | 0.00 | 0.00 | 62 | 1029.3 |
| 20260906112820 | 56 | 32 | 0.0 | 1.7 | 0.00 | 0.00 | 0.00 | 61 | 1029.2 |
| 20260906112319 | 55 | 34 | 1.7 | 1.7 | 0.00 | 0.00 | 0.00 | 62 | 1029.1 |
| 20260906111840 | 54 | 7 | 0.0 | 0.0 | 0.00 | 0.00 | 0.00 | 64 | 1029.1 |
| 20260906111323 | 54 | 6 | 0.0 | 0.0 | 0.00 | 0.00 | 0.00 | 65 | 1029.1 |
| 20260906110822 | 54 | 355 | 0.0 | 0.0 | 0.00 | 0.00 | 0.00 | 64 | 1029.1 |
| 20260906110344 | 54 | 355 | 0.0 | 0.0 | 0.00 | 0.00 | 0.00 | 63 | 1029.0 |
| 20260906105812 | 55 | 355 | 0.0 | 0.0 | 0.00 | 0.00 | 0.00 | 63 | 1029.0 |
| 20260906105314 | 55 | 355 | 0.0 | 0.0 | 0.00 | 0.00 | 0.00 | 63 | 1029.1 |
| 20260906104813 | 55 | 355 | 0.0 | 0.0 | 0.00 | 0.00 | 0.00 | 63 | 1029.1 |
| 20260906104323 | 54 | 355 | 0.0 | 0.0 | 0.00 | 0.00 | 0.00 | 64 | 1029.3 |
| 20260906103844 | 54 | 354 | 0.0 | 0.9 | 0.00 | 0.00 | 0.00 | 65 | 1029.3 |
| 20260906103323 | 54 | 349 | 0.0 | 0.9 | 0.00 | 0.00 | 0.00 | 64 | 1029.2 |
| 20260906102832 | 55 | 349 | 0.9 | 1.7 | 0.00 | 0.00 | 0.00 | 64 | 1029.2 |
| 20260906102313 | 55 | 349 | 0.0 | 1.7 | 0.00 | 0.00 | 0.00 | 64 | 1029.1 |
| 20260906101835 | 55 | 349 | 1.7 | 1.7 | 0.00 | 0.00 | 0.00 | 63 | 1029.2 |
| 20260906101322 | 55 | 349 | 0.0 | 1.7 | 0.00 | 0.00 | 0.00 | 63 | 1029.2 |
| 20260906100823 | 56 | 349 | 0.9 | 1.7 | 0.00 | 0.00 | 0.00 | 62 | 1029.2 |
| 20260906100324 | 56 | 349 | 0.9 | 1.7 | 0.00 | 0.00 | 0.00 | 60 | 1029.2 |
| 20260906095814 | 57 | 55 | 0.0 | 0.0 | 0.00 | 0.00 | 0.00 | 59 | 1029.2 |
| 20260906095316 | 58 | 56 | 0.0 | 0.0 | 0.00 | 0.00 | 0.00 | 57 | 1029.2 |
| 20260906094818 | 59 | 56 | 0.0 | 0.0 | 0.00 | 0.00 | 0.00 | 57 | 1029.2 |
| 20260906094328 | 59 | 55 | 0.0 | 0.0 | 0.00 | 0.00 | 0.00 | 56 | 1029.3 |
| 20260906093829 | 59 | 56 | 0.0 | 0.0 | 0.00 | 0.00 | 0.00 | 57 | 1029.3 |
| 20260906093328 | 58 | 55 | 0.0 | 0.0 | 0.00 | 0.00 | 0.00 | 59 | 1029.4 |
| 20260906092820 | 57 | 56 | 0.0 | 0.0 | 0.00 | 0.00 | 0.00 | 60 | 1029.4 |
| 20260906092321 | 58 | 55 | 0.0 | 0.0 | 0.00 | 0.00 | 0.00 | 59 | 1029.5 |
| 20260906091820 | 58 | 55 | 0.0 | 0.9 | 0.00 | 0.00 | 0.00 | 58 | 1029.4 |
| 20260906091326 | 58 | 56 | 0.0 | 1.7 | 0.00 | 0.00 | 0.00 | 58 | 1029.4 |
| 20260906090828 | 58 | 56 | 0.9 | 2.6 | 0.00 | 0.00 | 0.00 | 58 | 1029.3 |
| 20260906090330 | 58 | 56 | 1.7 | 2.6 | 0.00 | 0.00 | 0.00 | 59 | 1029.2 |
| 20260906085839 | 58 | 342 | 0.0 | 0.0 | 0.00 | 0.00 | 0.00 | 59 | 1029.1 |
| 20260906085320 | 58 | 337 | 0.0 | 2.6 | 0.00 | 0.00 | 0.00 | 58 | 1029.1 |
| 20260906084821 | 58 | 22 | 0.9 | 2.6 | 0.00 | 0.00 | 0.00 | 59 | 1029.1 |
| 20260906084311 | 58 | 35 | 0.9 | 2.6 | 0.00 | 0.00 | 0.00 | 59 | 1029.1 |
| 20260906083831 | 58 | 37 | 1.7 | 2.6 | 0.00 | 0.00 | 0.00 | 59 | 1029.1 |
| 20260906083351 | 58 | 34 | 0.9 | 1.7 | 0.00 | 0.00 | 0.00 | 60 | 1029.1 |
| 20260906082839 | 59 | 37 | 0.0 | 1.7 | 0.00 | 0.00 | 0.00 | 59 | 1029.1 |
| 20260906082319 | 59 | 21 | 0.9 | 1.7 | 0.00 | 0.00 | 0.00 | 60 | 1029.2 |
| 20260906081819 | 58 | 19 | 1.7 | 1.7 | 0.00 | 0.00 | 0.00 | 61 | 1029.2 |
| 20260906081328 | 58 | 19 | 0.9 | 2.6 | 0.00 | 0.00 | 0.00 | 61 | 1029.3 |
| 20260906080848 | 59 | 23 | 0.9 | 2.6 | 0.00 | 0.00 | 0.00 | 60 | 1029.3 |
| 20260906080328 | 60 | 305 | 0.0 | 2.6 | 0.00 | 0.00 | 0.00 | 59 | 1029.4 |
| 20260906075817 | 60 | 72 | 0.0 | 1.7 | 0.00 | 0.00 | 0.00 | 59 | 1029.5 |
| 20260906075338 | 60 | 326 | 0.9 | 1.7 | 0.00 | 0.00 | 0.00 | 58 | 1029.6 |
| 20260906074821 | 60 | 20 | 0.9 | 3.5 | 0.00 | 0.00 | 0.00 | 59 | 1029.6 |
| 20260906074329 | 60 | 349 | 0.9 | 3.5 | 0.00 | 0.00 | 0.00 | 59 | 1029.5 |
| 20260906073851 | 60 | 32 | 0.0 | 2.6 | 0.00 | 0.00 | 0.00 | 60 | 1029.6 |
| 20260906073332 | 61 | 285 | 1.7 | 2.6 | 0.00 | 0.00 | 0.00 | 59 | 1029.5 |
| 20260906072844 | 61 | 49 | 0.9 | 2.6 | 0.00 | 0.00 | 0.00 | 59 | 1029.6 |
| 20260906072325 | 60 | 125 | 0.9 | 1.7 | 0.00 | 0.00 | 0.00 | 59 | 1029.6 |
| 20260906071824 | 61 | 134 | 0.0 | 0.9 | 0.00 | 0.00 | 0.00 | 59 | 1029.6 |
| 20260906071311 | 62 | 135 | 0.0 | 3.5 | 0.00 | 0.00 | 0.00 | 58 | 1029.6 |
| 20260906070832 | 62 | 134 | 1.7 | 3.5 | 0.00 | 0.00 | 0.00 | 57 | 1029.6 |
| 20260906070333 | 62 | 102 | 1.7 | 4.3 | 0.00 | 0.00 | 0.00 | 57 | 1029.6 |
| 20260906065823 | 63 | 132 | 1.7 | 4.3 | 0.00 | 0.00 | 0.00 | 56 | 1029.5 |
| 20260906065325 | 63 | 138 | 0.9 | 3.5 | 0.00 | 0.00 | 0.00 | 56 | 1029.6 |
| 20260906064847 | 63 | 181 | 0.9 | 4.3 | 0.00 | 0.00 | 0.00 | 56 | 1029.6 |
| 20260906064315 | 63 | 205 | 1.7 | 6.1 | 0.00 | 0.00 | 0.00 | 56 | 1029.7 |
| 20260906063817 | 63 | 108 | 1.7 | 5.2 | 0.00 | 0.00 | 0.00 | 56 | 1029.7 |
| 20260906063319 | 63 | 245 | 2.6 | 5.2 | 0.00 | 0.00 | 0.00 | 55 | 1029.6 |
| 20260906062827 | 63 | 144 | 0.0 | 3.5 | 0.00 | 0.00 | 0.00 | 54 | 1029.7 |
| 20260906062344 | 64 | 82 | 1.7 | 3.5 | 0.00 | 0.00 | 0.00 | 53 | 1029.8 |
| 20260906061824 | 64 | 266 | 0.9 | 4.3 | 0.00 | 0.00 | 0.00 | 53 | 1029.6 |
| 20260906061312 | 65 | 304 | 0.9 | 4.3 | 0.00 | 0.00 | 0.00 | 52 | 1029.8 |
| 20260906060814 | 64 | 163 | 1.7 | 5.2 | 0.00 | 0.00 | 0.00 | 53 | 1029.8 |
| 20260906060337 | 64 | 289 | 2.6 | 5.2 | 0.00 | 0.00 | 0.00 | 55 | 1029.9 |
| 20260906055823 | 65 | 314 | 0.0 | 0.0 | 0.00 | 0.00 | 0.00 | 56 | 1029.9 |
| 20260906055324 | 66 | 152 | 0.0 | 0.0 | 0.00 | 0.00 | 0.00 | 52 | 1029.9 |
| 20260906054826 | 66 | 152 | 0.0 | 0.0 | 0.00 | 0.00 | 0.00 | 49 | 1030.1 |
| 20260906054315 | 66 | 113 | 0.0 | 0.0 | 0.00 | 0.00 | 0.00 | 48 | 1030.2 |
| 20260906053818 | 66 | 91 | 0.0 | 5.2 | 0.00 | 0.00 | 0.00 | 48 | 1030.2 |
| 20260906053319 | 67 | 229 | 2.6 | 5.2 | 0.00 | 0.00 | 0.00 | 47 | 1030.3 |
| 20260906052830 | 66 | 150 | 2.6 | 6.1 | 0.00 | 0.00 | 0.00 | 48 | 1030.4 |
| 20260906052312 | 67 | 110 | 2.6 | 7.8 | 0.00 | 0.00 | 0.00 | 47 | 1030.4 |
| 20260906051812 | 67 | 129 | 2.6 | 10.4 | 0.00 | 0.00 | 0.00 | 47 | 1030.2 |
| 20260906051324 | 67 | 293 | 1.7 | 10.4 | 0.00 | 0.00 | 0.00 | 47 | 1030.1 |
| 20260906050825 | 67 | 291 | 2.6 | 7.8 | 0.00 | 0.00 | 0.00 | 47 | 1030.1 |
| 20260906050327 | 67 | 249 | 1.7 | 8.7 | 0.00 | 0.00 | 0.00 | 47 | 1030.2 |
| 20260906045817 | 67 | 284 | 2.6 | 7.0 | 0.00 | 0.00 | 0.00 | 46 | 1030.1 |
| 20260906045318 | 67 | 269 | 0.9 | 6.1 | 0.00 | 0.00 | 0.00 | 46 | 1030.1 |
| 20260906044819 | 67 | 204 | 0.0 | 3.5 | 0.00 | 0.00 | 0.00 | 47 | 1030.1 |
| 20260906044328 | 67 | 231 | 0.9 | 3.5 | 0.00 | 0.00 | 0.00 | 47 | 1030.0 |
| 20260906043849 | 67 | 136 | 0.9 | 2.6 | 0.00 | 0.00 | 0.00 | 47 | 1030.0 |
| 20260906043351 | 67 | 287 | 0.9 | 7.0 | 0.00 | 0.00 | 0.00 | 46 | 1029.8 |
| 20260906042819 | 67 | 231 | 3.5 | 7.0 | 0.00 | 0.00 | 0.00 | 47 | 1029.9 |
| 20260906042340 | 67 | 311 | 1.7 | 11.3 | 0.00 | 0.00 | 0.00 | 47 | 1029.9 |
| 20260906041822 | 67 | 284 | 3.5 | 10.4 | 0.00 | 0.00 | 0.00 | 47 | 1029.9 |
| 20260906041332 | 67 | 112 | 1.7 | 9.6 | 0.00 | 0.00 | 0.00 | 46 | 1029.9 |
| 20260906040854 | 67 | 142 | 3.5 | 9.6 | 0.00 | 0.00 | 0.00 | 46 | 1029.9 |
| 20260906040354 | 66 | 266 | 2.6 | 7.8 | 0.00 | 0.00 | 0.00 | 46 | 1029.8 |
| 20260906035824 | 66 | 245 | 2.6 | 7.8 | 0.00 | 0.00 | 0.00 | 48 | 1030.1 |
| 20260906035326 | 65 | 342 | 2.6 | 7.0 | 0.00 | 0.00 | 0.00 | 49 | 1030.1 |
| 20260906034847 | 64 | 316 | 1.7 | 7.0 | 0.00 | 0.00 | 0.00 | 50 | 1030.2 |
| 20260906034316 | 64 | 232 | 1.7 | 4.3 | 0.00 | 0.00 | 0.00 | 52 | 1030.1 |
| 20260906033818 | 63 | 68 | 1.7 | 4.3 | 0.00 | 0.00 | 0.00 | 53 | 1030.1 |
| 20260906033319 | 63 | 222 | 0.0 | 3.5 | 0.00 | 0.00 | 0.00 | 54 | 1029.8 |
| 20260906032826 | 63 | 233 | 1.7 | 3.5 | 0.00 | 0.00 | 0.00 | 54 | 1029.9 |
| 20260906032329 | 63 | 143 | 1.7 | 2.6 | 0.00 | 0.00 | 0.00 | 53 | 1029.7 |
| 20260906031831 | 63 | 98 | 0.9 | 3.5 | 0.00 | 0.00 | 0.00 | 53 | 1029.6 |
| 20260906031321 | 63 | 104 | 1.7 | 2.6 | 0.00 | 0.00 | 0.00 | 53 | 1029.5 |
| 20260906030823 | 63 | 158 | 0.9 | 3.5 | 0.00 | 0.00 | 0.00 | 53 | 1029.5 |
| 20260906030325 | 63 | 149 | 1.7 | 3.5 | 0.00 | 0.00 | 0.00 | 53 | 1029.5 |
| 20260906025814 | 63 | 149 | 0.0 | 2.6 | 0.00 | 0.00 | 0.00 | 53 | 1029.4 |
| 20260906025316 | 63 | 152 | 0.9 | 3.5 | 0.00 | 0.00 | 0.00 | 53 | 1029.4 |
| 20260906024818 | 63 | 108 | 0.0 | 0.0 | 0.00 | 0.00 | 0.00 | 52 | 1029.3 |
| 20260906024321 | 63 | 101 | 0.0 | 0.0 | 0.00 | 0.00 | 0.00 | 51 | 1029.2 |
| 20260906023843 | 64 | 102 | 0.0 | 0.0 | 0.00 | 0.00 | 0.00 | 49 | 1029.1 |
| 20260906023324 | 65 | 103 | 0.0 | 0.0 | 0.00 | 0.00 | 0.00 | 49 | 1029.0 |
| 20260906022814 | 64 | 112 | 0.0 | 0.0 | 0.00 | 0.00 | 0.00 | 50 | 1029.0 |
| 20260906022316 | 64 | 101 | 0.0 | 0.0 | 0.00 | 0.00 | 0.00 | 50 | 1029.1 |
| 20260906021817 | 64 | 104 | 0.0 | 0.0 | 0.00 | 0.00 | 0.00 | 50 | 1029.1 |
| 20260906021327 | 65 | 105 | 0.0 | 0.0 | 0.00 | 0.00 | 0.00 | 49 | 1029.0 |
| 20260906020827 | 65 | 105 | 0.0 | 0.0 | 0.00 | 0.00 | 0.00 | 49 | 1028.9 |
| 20260906020329 | 66 | 104 | 0.0 | 1.7 | 0.00 | 0.00 | 0.00 | 47 | 1028.9 |
| 20260906015819 | 67 | 14 | 0.9 | 1.7 | 0.00 | 0.00 | 0.00 | 46 | 1028.8 |
| 20260906015323 | 68 | 7 | 0.0 | 2.6 | 0.00 | 0.00 | 0.00 | 45 | 1028.7 |
| 20260906014824 | 69 | 338 | 1.7 | 4.3 | 0.00 | 0.00 | 0.00 | 47 | 1028.6 |
| 20260906014314 | 69 | 6 | 0.0 | 6.1 | 0.00 | 0.00 | 0.00 | 41 | 1029.0 |
| 20260906013816 | 69 | 232 | 1.7 | 7.0 | 0.00 | 0.00 | 0.00 | 41 | 1029.0 |
| 20260906013338 | 69 | 271 | 3.5 | 9.6 | 0.00 | 0.00 | 0.00 | 42 | 1029.2 |
| 20260906012829 | 69 | 263 | 5.2 | 9.6 | 0.00 | 0.00 | 0.00 | 43 | 1029.2 |
| 20260906012330 | 69 | 229 | 2.6 | 6.1 | 0.00 | 0.00 | 0.00 | 43 | 1029.3 |
| 20260906011831 | 69 | 287 | 2.6 | 5.2 | 0.00 | 0.00 | 0.00 | 42 | 1029.1 |
| 20260906011321 | 69 | 155 | 0.9 | 3.5 | 0.00 | 0.00 | 0.00 | 41 | 1028.9 |
| 20260906010822 | 70 | 233 | 0.0 | 0.9 | 0.00 | 0.00 | 0.00 | 40 | 1029.0 |
| 20260906010324 | 70 | 246 | 0.0 | 2.6 | 0.00 | 0.00 | 0.00 | 40 | 1028.9 |
| 20260906005815 | 70 | 246 | 0.9 | 2.6 | 0.00 | 0.00 | 0.00 | 39 | 1028.8 |
| 20260906005337 | 70 | 323 | 0.9 | 1.7 | 0.00 | 0.00 | 0.00 | 39 | 1029.0 |
| 20260906004819 | 71 | 271 | 0.9 | 2.6 | 0.00 | 0.00 | 0.00 | 38 | 1029.1 |
| 20260906004329 | 71 | 278 | 0.9 | 2.6 | 0.00 | 0.00 | 0.00 | 37 | 1029.1 |
| 20260906003812 | 72 | 330 | 0.0 | 2.6 | 0.00 | 0.00 | 0.00 | 36 | 1029.1 |
| 20260906003333 | 73 | 284 | 0.0 | 4.3 | 0.00 | 0.00 | 0.00 | 35 | 1029.1 |
| 20260906002845 | 74 | 8 | 1.7 | 4.3 | 0.00 | 0.00 | 0.00 | 35 | 1029.0 |
| 20260906002325 | 74 | 119 | 1.7 | 5.2 | 0.00 | 0.00 | 0.00 | 34 | 1028.8 |
| 20260906001828 | 75 | 336 | 2.6 | 6.1 | 0.00 | 0.00 | 0.00 | 34 | 1028.9 |
| 20260906001319 | 75 | 259 | 2.6 | 6.1 | 0.00 | 0.00 | 0.00 | 33 | 1028.8 |
| 20260906000840 | 75 | 304 | 1.7 | 5.2 | 0.00 | 0.00 | 0.00 | 34 | 1028.8 |
| 20260906000321 | 74 | 321 | 2.6 | 6.1 | 0.00 | 0.00 | 0.00 | 34 | 1028.9 |
| 20260905235829 | 75 | 285 | 2.6 | 7.0 | 0.00 | 0.00 | 0.00 | 34 | 1028.9 |
| 20260905235312 | 75 | 295 | 3.5 | 7.0 | 0.00 | 0.00 | 0.00 | 35 | 1028.8 |
| 20260905234834 | 75 | 295 | 3.5 | 8.7 | 0.00 | 0.00 | 0.00 | 35 | 1028.8 |
| 20260905234325 | 75 | 262 | 3.5 | 8.7 | 0.00 | 0.00 | 0.00 | 34 | 1028.8 |
| 20260905233826 | 75 | 283 | 2.6 | 8.7 | 0.00 | 0.00 | 0.00 | 35 | 1028.7 |
| 20260905233348 | 74 | 297 | 2.6 | 7.8 | 0.00 | 0.00 | 0.00 | 36 | 1028.6 |
| 20260905232818 | 74 | 283 | 3.5 | 7.8 | 0.00 | 0.00 | 0.00 | 35 | 1028.9 |
| 20260905232320 | 74 | 301 | 2.6 | 6.1 | 0.00 | 0.00 | 0.00 | 34 | 1028.8 |
| 20260905231820 | 74 | 281 | 1.7 | 7.0 | 0.00 | 0.00 | 0.00 | 32 | 1028.8 |
| 20260905231327 | 75 | 269 | 3.5 | 7.0 | 0.00 | 0.00 | 0.00 | 32 | 1028.7 |
| 20260905230845 | 75 | 287 | 2.6 | 4.3 | 0.00 | 0.00 | 0.00 | 30 | 1028.5 |
| 20260905230326 | 75 | 28 | 1.7 | 5.2 | 0.00 | 0.00 | 0.00 | 31 | 1028.5 |
| 20260905225817 | 76 | 345 | 2.6 | 5.2 | 0.00 | 0.00 | 0.00 | 30 | 1028.5 |